Regional Weather Roundup
Issued by NWS

Home | Current Version | Previous Version | Text Only | Print | Product List | Glossary Off
Versions: 1 2 3 4 5 6 7 8 9 10 11 12 13 14 15 16 17 18 19 20 21 22 23 24 25 26 27 28 29 30 31 32 33 34 35 36 37 38 39 40 41 42 43 44 45 46 47 48 49 50

000
ASUS44 KMEG 051406
RWRTN

TENNESSEE HOURLY STATE WEATHER ROUNDUP
NATIONAL WEATHER SERVICE MEMPHIS TN
900 AM CDT SUN JUL 05 2015

TNZ002-004-019-021-049-052-054-088>092-051500-
WEST TENNESSEE

CITY           SKY/WX    TMP DP  RH WIND       PRES   REMARKS
MEMPHIS INTL   MOSUNNY   76  69  79 VRB5      30.08S
NWS MEMPHIS      N/A     75 N/A N/A MISG        N/A
JACKSON        PTSUNNY   76  70  82 CALM      30.09S
DYERSBURG        N/A    N/A N/A N/A MISG        N/A
PARIS          MOSUNNY   73  68  83 CALM      30.09S
LEXINGTON      CLOUDY    73  70  88 CALM      30.09R
$$

TNZ008-025-027-028-033-062-065-066-051500-
NORTH MIDDLE TENNESSEE

CITY           SKY/WX    TMP DP  RH WIND       PRES   REMARKS
NASHVILLE      LGT RAIN  71  71 100 CALM      30.10R FOG
CLARKSVILLE    PTSUNNY   75  69  81 SW3       30.09R
COOKEVILLE     CLOUDY    70  70 100 MISG      30.09R
CROSSVILLE     CLOUDY    69  65  86 W8        30.11R
$$

TNZ061-075-076-078-094-096-097-051500-
SOUTH MIDDLE TENNESSEE

CITY           SKY/WX    TMP DP  RH WIND       PRES   REMARKS
FAYETTEVILLE   CLOUDY    66  66 100 CALM      30.14R
TULLAHOMA      CLOUDY    70  66  88 W7        30.13R
WINCHESTER     CLOUDY    66  66 100 W6        30.13R
COLUMBIA       CLOUDY    73  72  94 CALM      30.10S
SHELBYVILLE    CLOUDY    72  72 100 W5          N/A
$$

TNZ017-018-042-046-047-051500-
NORTHEAST TENNESSEE

CITY           SKY/WX    TMP DP  RH WIND       PRES   REMARKS
TRI CITIES     CLOUDY    72  69  90 VRB3      30.11S
ELIZABETHTON   SUNNY     72  66  83 CALM      30.11F
$$

TNZ012-013-036-069-073-074-051500-
CENTRAL EAST TENNESSEE

CITY           SKY/WX    TMP DP  RH WIND       PRES   REMARKS
KNOXVILLE      CLOUDY    71  67  87 S14       30.08R
OAK RIDGE      HVY RAIN  69  68  96 S5        30.08R VSB 3/4
GATLINBURG     CLOUDY    72  66  83 CALM      30.08S
$$

TNZ083-085-099-051500-
SOUTHEAST TENNESSEE

CITY           SKY/WX    TMP DP  RH WIND       PRES   REMARKS
CHATTANOOGA    LGT RAIN  70  66  87 SW9       30.09R FOG
$$

SKY/WX REPORTED AS FAIR MEANS FEW OR NO CLOUDS BELOW
12 THOUSAND FEET.



USA.gov is the U.S. government's official web portal to all federal, state and local government web resources and services.